Starlink 3936

operational
NORAD ID: 52674 Int'l Des: 2022-053 Owner: SPXS Country: US Constellation: starlink
LEOCIRCULAR

About Starlink 3936

Description loading...

Live Position

Loading 3D Globe...

Upcoming Passes

Altitude History

Altitude vs Time

uPlot chart will show altitude changes over time

Two-Line Element Set

1 52674U 22053U 26034.47087239 .00000809 00000-0 68922-4 0 9999
2 52674 53.2164 307.7364 0001429 90.7922 269.3234 15.08837598205888
Epoch: Feb 3, 2026 • Age: 16 hours

Current Status

Altitude 548.0 km
Velocity 7.59 km/s
Sub-Earth Point -26.00°S, 103.43°E
Launch Date May 18, 2022
Age 3.7 years
Type internet

Technical Details

Classification Payload
Mass 297.00 kg
Dry Mass 275.00 kg
Total Mass 297.00 kg
Length 0.20 m
Diameter 2.80 m
Span 9.00 m
Shape Box + pan
Manufacturer SPXS
Bus Type Starlink
Phase Status In Orbit
Owner/State SPXS/US

Large Constellations

Loading constellations...